Regional Weather Roundup
Issued by NWS

Home | Current Version | Previous Version | Text Only | Print | Product List | Glossary On
Versions: 1 2 3 4 5 6 7 8 9 10 11 12 13 14 15 16 17 18 19 20 21 22 23 24 25 26 27 28 29 30 31 32 33 34 35 36 37 38 39 40 41 42 43 44 45 46 47 48 49 50
000
ASUS46 KSEW 060510
RWRWA

WASHINGTON REGIONAL WEATHER ROUNDUP
NATIONAL WEATHER SERVICE SEATTLE WA
1000 PM PDT THU MAY 05 2016

NOTE:"FAIR" INDICATES FEW OR NO CLOUDS BELOW 12,000 FEET WITH NO
SIGNIFICANT WEATHER AND/OR OBSTRUCTIONS TO VISIBILITY.

WAZ505-507>509-060600-
SEATTLE, TACOMA, EVERETT, AND VICINITY

CITY           SKY/WX    TMP DP  RH WIND       PRES   REMARKS
EVERETT        CLEAR     56  44  64 N5        30.05R
BOEING FIELD   CLEAR     63  49  60 N5        30.04R
RENTON         PTCLDY    61  52  72 N3        30.03R
SEATAC AIRPORT PTCLDY    62  49  62 NE9       30.04S
JBLM-MCCHORD   PTCLDY    59  50  73 NE3       30.03R
PUYALLUP       FAIR      54  52  94 CALM      30.04R
BREMERTON      CLEAR     52  46  82 CALM      30.06S
JBLM-FT LEWIS  PTCLDY    60  50  68 NE3       30.03R
TACOMA NARROWS CLEAR     58  47  66 CALM      30.04R
$$

WAZ001-503-506-510-514-515-060600-
NORTH INTERIOR

CITY           SKY/WX    TMP DP  RH WIND       PRES   REMARKS
BELLINGHAM     CLEAR     53  48  83 CALM      30.05R
FRIDAY HARBOR  CLEAR     52  43  71 W5        30.06R
EASTSOUND      CLEAR     54  46  76 S3        30.04R
PORT ANGELES   PTCLDY    54  41  61 W7        30.08R
EDIZ HOOK      FAIR      55  44  66 W15       30.07R
PORT TOWNSEND  FAIR      57  43  58 NW9G15    30.05R
NAS WHIDBEY    PTCLDY    53  47  79 CALM      30.09R
ARLINGTON      CLEAR     54  41  62 NW8       30.06R
BURLINGTON     CLEAR     52  46  82 CALM      30.05S
$$

WAZ020-022-039-040-504-511-512-060600-
SOUTHWEST INTERIOR

CITY           SKY/WX    TMP DP  RH WIND       PRES   REMARKS
SHELTON        CLEAR     53  47  79 CALM      30.02R
OLYMPIA        CLEAR     58  46  64 N6        30.04R
CHEHALIS       FAIR      59  50  72 CALM      30.03R
KELSO          CLEAR     57  45  62 CALM      30.04R
VANCOUVER      PTCLDY    62  46  55 NW8       29.98R
SCAPPOOSE, OR  PTCLDY    61  46  57 NW9       29.98R
PORTLAND, OR   MOCLDY    62  46  55 NW9       29.99R
$$

WAZ021-516-517-060600-
WASHINGTON COAST

CITY           SKY/WX    TMP DP  RH WIND       PRES   REMARKS
FORKS          CLEAR     55  36  48 N5        30.08R
HOQUIAM        CLEAR     53  48  83 W6        30.05R
ASTORIA, OR    PTCLDY    53  48  83 SW3       30.05R
$$

WAZ019-023-024-040-518-519-060600-
CASCADE MOUNTAINS AND COLUMBIA GORGE

CITY           SKY/WX    TMP DP  RH WIND       PRES   REMARKS
STAMPEDE PASS  PTCLDY    43  41  93 SW3       30.06R
TROUTDALE, OR  PTCLDY    62  46  55 CALM      29.98R
THE DALLES, OR MOCLDY    65  50  58 NW14      29.93R
$$

WAZ026-027-041>044-520-521-060600-
EAST SLOPES

CITY           SKY/WX    TMP DP  RH WIND       PRES   REMARKS
OMAK           PTCLDY    56  41  57 N10       30.01R
WENATCHEE      CLEAR     60  43  53 W6        29.98R
ELLENSBURG     PTCLDY    59  48  67 N12       29.97R
YAKIMA         MOCLDY    67  45  45 N9        29.95R
$$

WAZ028-034-035-060600-
COLUMBIA BASIN

CITY           SKY/WX    TMP DP  RH WIND       PRES   REMARKS
EPHRATA        PTCLDY    61  43  51 N12       29.96R
MOSES LAKE     PTCLDY    59  44  57 N12       29.95R
PASCO          MOCLDY    63  52  67 NW10      29.93R
HERMISTON, OR  CLOUDY    67  50  54 N7        29.92R
$$

WAZ036>038-060600-
NORTHEAST WASHINGTON

CITY           SKY/WX    TMP DP  RH WIND       PRES   REMARKS
SPOKANE GEIGER MOCLDY    59  50  72 N7        29.94R
SPOKANE FELTS  CLOUDY    62  51  67 VRB3      29.94R
FAIRCHILD AFB  MOCLDY    55  51  86 N7        29.95R
COEURDALENE,ID CLOUDY    61  50  67 NE9       29.91R
DEER PARK      MOCLDY    53  49  86 NW6       29.96R
$$

WAZ029>033-060600-
SOUTHEAST WASHINGTON

CITY           SKY/WX    TMP DP  RH WIND       PRES   REMARKS
PULLMAN        CLOUDY    62  51  67 N9        29.94R
LEWISTON, ID   TSTM      66  56  70 SW9       29.91R
WALLA WALLA    CLOUDY    65  56  72 CALM      29.90F
PENDLETON, OR  CLOUDY    61  53  75 NW12      29.92R
$$



USA.gov is the U.S. government's official web portal to all federal, state and local government web resources and services.